Time,TemperatureF,DewpointF,PressureIn,WindDirection,WindDirectionDegrees,WindSpeedMPH,WindSpeedGustMPH,Humidity,HourlyPrecipIn,Conditions,Clouds,dailyrainin,SoftwareType,DateUTC
2013-08-31 00:02:00,73.0,72.0,29.95,SSW,210,0.0,0.0,98,0.00,,,0.00,weatherlink.com 1.10,2013-08-31 04:02:00,
2013-08-31 00:17:00,72.8,72.0,29.95,SSW,210,0.0,0.0,98,0.00,,,0.00,weatherlink.com 1.10,2013-08-31 04:17:00,
2013-08-31 00:32:00,72.7,72.0,29.96,SSW,209,0.0,0.0,99,0.00,,,0.00,weatherlink.com 1.10,2013-08-31 04:32:00,
2013-08-31 00:48:00,72.7,72.0,29.95,SSW,211,0.0,0.0,99,0.00,,,0.00,weatherlink.com 1.10,2013-08-31 04:48:00,
2013-08-31 01:03:00,72.6,72.0,29.95,SSW,211,0.0,0.0,99,0.00,,,0.00,weatherlink.com 1.10,2013-08-31 05:03:00,
2013-08-31 01:18:00,72.4,72.0,29.95,SSW,211,0.0,0.0,99,0.00,,,0.00,weatherlink.com 1.10,2013-08-31 05:18:00,
2013-08-31 01:33:00,72.3,72.0,29.95,SSW,211,0.0,0.0,99,0.00,,,0.00,weatherlink.com 1.10,2013-08-31 05:33:00,
2013-08-31 01:48:00,72.2,72.0,29.95,SSW,211,0.0,0.0,99,0.00,,,0.00,weatherlink.com 1.10,2013-08-31 05:48:00,
2013-08-31 02:03:00,72.1,72.0,29.95,SSW,211,0.0,0.0,99,0.00,,,0.00,weatherlink.com 1.10,2013-08-31 06:03:00,
2013-08-31 02:18:00,71.9,72.0,29.95,SSW,211,0.0,0.0,99,0.00,,,0.00,weatherlink.com 1.10,2013-08-31 06:18:00,
2013-08-31 02:33:00,71.9,72.0,29.95,SSW,211,0.0,0.0,99,0.00,,,0.00,weatherlink.com 1.10,2013-08-31 06:33:00,
2013-08-31 02:48:00,71.9,72.0,29.95,SSW,211,0.0,0.0,99,0.00,,,0.00,weatherlink.com 1.10,2013-08-31 06:48:00,
2013-08-31 03:03:00,71.7,71.0,29.94,SSW,211,0.0,0.0,99,0.00,,,0.00,weatherlink.com 1.10,2013-08-31 07:03:00,
2013-08-31 03:18:00,71.5,71.0,29.95,SSW,211,0.0,0.0,99,0.00,,,0.00,weatherlink.com 1.10,2013-08-31 07:18:00,
2013-08-31 03:33:00,71.4,71.0,29.94,SSW,211,0.0,0.0,99,0.00,,,0.00,weatherlink.com 1.10,2013-08-31 07:33:00,
2013-08-31 03:48:00,71.4,71.0,29.94,SSW,211,0.0,0.0,99,0.00,,,0.00,weatherlink.com 1.10,2013-08-31 07:48:00,
2013-08-31 04:03:00,71.4,71.0,29.94,SSW,211,0.0,0.0,99,0.00,,,0.00,weatherlink.com 1.10,2013-08-31 08:03:00,
2013-08-31 04:18:00,71.6,71.0,29.94,SSW,211,0.0,0.0,99,0.00,,,0.00,weatherlink.com 1.10,2013-08-31 08:18:00,
2013-08-31 04:33:00,71.8,72.0,29.94,SSW,211,0.0,0.0,99,0.00,,,0.00,weatherlink.com 1.10,2013-08-31 08:33:00,
2013-08-31 04:48:00,71.9,72.0,29.94,SW,229,0.0,0.0,99,0.00,,,0.00,weatherlink.com 1.10,2013-08-31 08:48:00,
2013-08-31 05:03:00,72.0,72.0,29.94,SW,229,0.0,0.0,99,0.00,,,0.00,weatherlink.com 1.10,2013-08-31 09:03:00,
2013-08-31 05:18:00,72.1,72.0,29.94,SW,229,0.0,0.0,99,0.00,,,0.00,weatherlink.com 1.10,2013-08-31 09:18:00,
2013-08-31 05:33:00,72.2,72.0,29.95,SW,230,0.0,0.0,99,0.00,,,0.00,weatherlink.com 1.10,2013-08-31 09:33:00,
2013-08-31 05:48:00,72.3,72.0,29.94,SW,230,0.0,0.0,99,0.00,,,0.00,weatherlink.com 1.10,2013-08-31 09:48:00,
2013-08-31 06:03:00,72.2,72.0,29.94,SW,229,0.0,0.0,99,0.00,,,0.00,weatherlink.com 1.10,2013-08-31 10:03:00,
2013-08-31 06:18:00,72.0,72.0,29.95,SW,229,0.0,0.0,99,0.00,,,0.00,weatherlink.com 1.10,2013-08-31 10:18:00,
2013-08-31 06:33:00,71.9,72.0,29.96,SW,229,0.0,0.0,99,0.00,,,0.00,weatherlink.com 1.10,2013-08-31 10:33:00,
2013-08-31 06:48:00,71.7,71.0,29.96,SW,229,0.0,0.0,99,0.00,,,0.00,weatherlink.com 1.10,2013-08-31 10:48:00,
2013-08-31 07:03:00,71.6,71.0,29.96,SW,229,0.0,0.0,99,0.00,,,0.00,weatherlink.com 1.10,2013-08-31 11:03:00,
2013-08-31 07:18:00,71.7,71.0,29.97,SW,229,0.0,0.0,99,0.00,,,0.00,weatherlink.com 1.10,2013-08-31 11:18:00,
2013-08-31 07:33:00,71.7,71.0,29.97,South,191,0.0,1.0,99,0.00,,,0.00,weatherlink.com 1.10,2013-08-31 11:33:00,
2013-08-31 07:48:00,72.2,72.0,29.97,South,191,0.0,0.0,99,0.00,,,0.00,weatherlink.com 1.10,2013-08-31 11:48:00,
2013-08-31 08:03:00,73.1,73.0,29.98,SSW,208,0.0,1.0,100,0.00,,,0.00,weatherlink.com 1.10,2013-08-31 12:03:00,
2013-08-31 08:18:00,73.5,73.0,29.98,NW,317,0.0,0.0,99,0.00,,,0.00,weatherlink.com 1.10,2013-08-31 12:18:00,
2013-08-31 08:33:00,74.5,74.0,29.97,NW,310,1.0,2.0,99,0.00,,,0.00,weatherlink.com 1.10,2013-08-31 12:33:00,
2013-08-31 08:48:00,75.4,75.0,29.97,SSW,198,0.0,1.0,99,0.00,,,0.00,weatherlink.com 1.10,2013-08-31 12:48:00,
2013-08-31 09:03:00,76.1,75.0,29.98,East,97,0.0,1.0,97,0.00,,,0.00,weatherlink.com 1.10,2013-08-31 13:03:00,
2013-08-31 09:18:00,76.7,76.0,29.99,ENE,66,0.0,1.0,96,0.00,,,0.00,weatherlink.com 1.10,2013-08-31 13:18:00,
2013-08-31 09:33:00,78.0,77.0,29.99,ENE,73,0.0,1.0,95,0.00,,,0.00,weatherlink.com 1.10,2013-08-31 13:33:00,
2013-08-31 09:48:00,79.2,77.0,29.99,NNE,24,0.0,1.0,92,0.00,,,0.00,weatherlink.com 1.10,2013-08-31 13:48:00,
2013-08-31 10:03:00,81.8,78.0,29.99,SE,136,0.0,2.0,88,0.00,,,0.00,weatherlink.com 1.10,2013-08-31 14:03:00,
2013-08-31 10:19:00,83.6,78.0,29.99,ESE,118,1.0,3.0,84,0.00,,,0.00,weatherlink.com 1.10,2013-08-31 14:19:00,
2013-08-31 10:34:00,85.5,79.0,29.99,North,354,2.0,2.0,80,0.00,,,0.00,weatherlink.com 1.10,2013-08-31 14:34:00,
2013-08-31 10:49:00,87.1,78.0,29.99,East,89,1.0,2.0,75,0.00,,,0.00,weatherlink.com 1.10,2013-08-31 14:49:00,
2013-08-31 11:04:00,87.0,79.0,29.98,South,189,0.0,2.0,78,0.00,,,0.00,weatherlink.com 1.10,2013-08-31 15:04:00,
2013-08-31 11:19:00,87.7,78.0,29.98,NNE,18,4.0,5.0,73,0.00,,,0.00,weatherlink.com 1.10,2013-08-31 15:19:00,
2013-08-31 11:34:00,87.5,77.0,29.98,NNW,332,0.0,3.0,72,0.00,,,0.00,weatherlink.com 1.10,2013-08-31 15:34:00,
2013-08-31 11:49:00,87.4,78.0,29.98,WSW,254,0.0,1.0,74,0.00,,,0.00,weatherlink.com 1.10,2013-08-31 15:49:00,
2013-08-31 12:04:00,86.6,78.0,29.97,WSW,254,0.0,0.0,75,0.00,,,0.00,weatherlink.com 1.10,2013-08-31 16:04:00,
2013-08-31 12:19:00,88.7,80.0,29.97,SE,143,2.0,2.0,76,0.00,,,0.00,weatherlink.com 1.10,2013-08-31 16:19:00,
2013-08-31 12:34:00,88.9,78.0,29.96,WSW,248,0.0,3.0,69,0.00,,,0.00,weatherlink.com 1.10,2013-08-31 16:34:00,
2013-08-31 12:49:00,90.2,78.0,29.96,SE,139,0.0,3.0,68,0.00,,,0.00,weatherlink.com 1.10,2013-08-31 16:49:00,
2013-08-31 13:04:00,90.5,78.0,29.96,SE,140,0.0,1.0,66,0.00,,,0.00,weatherlink.com 1.10,2013-08-31 17:04:00,
2013-08-31 13:19:00,91.2,78.0,29.95,NE,34,0.0,4.0,66,0.00,,,0.00,weatherlink.com 1.10,2013-08-31 17:19:00,
2013-08-31 13:34:00,91.3,78.0,29.95,North,349,0.0,2.0,65,0.00,,,0.00,weatherlink.com 1.10,2013-08-31 17:34:00,
2013-08-31 13:49:00,89.8,78.0,29.95,NE,40,0.0,1.0,68,0.00,,,0.00,weatherlink.com 1.10,2013-08-31 17:49:00,
2013-08-31 14:04:00,88.5,79.0,29.95,North,1,2.0,3.0,74,0.00,,,0.00,weatherlink.com 1.10,2013-08-31 18:04:00,
2013-08-31 14:19:00,85.9,78.0,29.95,SW,221,0.0,4.0,78,0.00,,,0.00,weatherlink.com 1.10,2013-08-31 18:19:00,
2013-08-31 14:34:00,81.5,78.0,29.95,SSE,156,0.0,3.0,88,0.27,,,0.27,weatherlink.com 1.10,2013-08-31 18:34:00,
2013-08-31 14:49:00,80.5,78.0,29.94,SE,143,0.0,1.0,93,0.29,,,0.29,weatherlink.com 1.10,2013-08-31 18:49:00,
2013-08-31 15:04:00,81.7,80.0,29.93,SE,143,0.0,1.0,95,0.30,,,0.30,weatherlink.com 1.10,2013-08-31 19:04:00,
2013-08-31 15:19:00,82.8,80.0,29.93,SSE,166,0.0,1.0,90,0.30,,,0.30,weatherlink.com 1.10,2013-08-31 19:19:00,
2013-08-31 15:34:00,81.9,79.0,29.92,SW,227,0.0,1.0,91,0.03,,,0.30,weatherlink.com 1.10,2013-08-31 19:34:00,
2013-08-31 15:49:00,81.4,78.0,29.91,SSE,160,0.0,1.0,89,0.01,,,0.30,weatherlink.com 1.10,2013-08-31 19:49:00,
2013-08-31 16:04:00,82.7,79.0,29.91,ESE,108,0.0,1.0,88,0.00,,,0.30,weatherlink.com 1.10,2013-08-31 20:04:00,
2013-08-31 16:19:00,84.1,79.0,29.91,East,101,0.0,2.0,85,0.00,,,0.30,weatherlink.com 1.10,2013-08-31 20:19:00,
2013-08-31 16:34:00,84.5,79.0,29.90,NE,56,0.0,4.0,82,0.00,,,0.30,weatherlink.com 1.10,2013-08-31 20:34:00,
2013-08-31 16:49:00,84.9,79.0,29.90,SSW,210,0.0,1.0,82,0.00,,,0.30,weatherlink.com 1.10,2013-08-31 20:49:00,
2013-08-31 17:04:00,85.1,79.0,29.90,SW,219,0.0,2.0,82,0.00,,,0.30,weatherlink.com 1.10,2013-08-31 21:04:00,
2013-08-31 17:19:00,86.1,79.0,29.90,SE,136,0.0,1.0,79,0.00,,,0.30,weatherlink.com 1.10,2013-08-31 21:19:00,
2013-08-31 17:34:00,85.6,79.0,29.91,NE,53,0.0,2.0,80,0.00,,,0.30,weatherlink.com 1.10,2013-08-31 21:34:00,
2013-08-31 17:49:00,85.6,78.0,29.90,South,191,0.0,1.0,79,0.00,,,0.30,weatherlink.com 1.10,2013-08-31 21:49:00,
2013-08-31 18:04:00,86.3,78.0,29.91,ENE,63,0.0,1.0,77,0.00,,,0.30,weatherlink.com 1.10,2013-08-31 22:04:00,
2013-08-31 18:19:00,86.1,79.0,29.91,South,191,1.0,2.0,78,0.00,,,0.30,weatherlink.com 1.10,2013-08-31 22:19:00,
2013-08-31 18:34:00,84.5,78.0,29.91,East,89,0.0,1.0,80,0.00,,,0.30,weatherlink.com 1.10,2013-08-31 22:34:00,
2013-08-31 18:49:00,83.7,78.0,29.91,ESE,116,0.0,1.0,82,0.00,,,0.30,weatherlink.com 1.10,2013-08-31 22:49:00,
2013-08-31 19:04:00,83.5,78.0,29.92,ENE,66,0.0,0.0,82,0.00,,,0.30,weatherlink.com 1.10,2013-08-31 23:04:00,
2013-08-31 19:19:00,83.0,77.0,29.92,East,100,0.0,0.0,83,0.00,,,0.30,weatherlink.com 1.10,2013-08-31 23:19:00,
2013-08-31 19:34:00,81.7,77.0,29.92,North,5,0.0,1.0,85,0.00,,,0.30,weatherlink.com 1.10,2013-08-31 23:34:00,
2013-08-31 19:49:00,80.4,76.0,29.92,North,4,0.0,0.0,87,0.00,,,0.30,weatherlink.com 1.10,2013-08-31 23:49:00,
2013-08-31 20:04:00,79.3,76.0,29.93,North,4,0.0,0.0,89,0.00,,,0.30,weatherlink.com 1.10,2013-09-01 00:04:00,
2013-08-31 20:19:00,78.5,76.0,29.92,North,4,0.0,0.0,91,0.00,,,0.30,weatherlink.com 1.10,2013-09-01 00:19:00,
2013-08-31 20:34:00,77.9,76.0,29.92,North,4,0.0,0.0,92,0.00,,,0.30,weatherlink.com 1.10,2013-09-01 00:34:00,
2013-08-31 20:49:00,77.4,75.0,29.92,North,4,0.0,0.0,93,0.00,,,0.30,weatherlink.com 1.10,2013-09-01 00:49:00,
2013-08-31 21:04:00,77.0,75.0,29.93,North,5,0.0,0.0,94,0.00,,,0.30,weatherlink.com 1.10,2013-09-01 01:04:00,
2013-08-31 21:19:00,76.8,75.0,29.94,North,5,0.0,0.0,95,0.00,,,0.30,weatherlink.com 1.10,2013-09-01 01:19:00,
2013-08-31 21:34:00,76.6,75.0,29.94,North,5,0.0,0.0,96,0.00,,,0.30,weatherlink.com 1.10,2013-09-01 01:34:00,
2013-08-31 21:49:00,76.5,75.0,29.94,North,4,0.0,0.0,96,0.00,,,0.30,weatherlink.com 1.10,2013-09-01 01:49:00,
2013-08-31 22:04:00,76.4,76.0,29.94,North,4,0.0,0.0,97,0.00,,,0.30,weatherlink.com 1.10,2013-09-01 02:04:00,
2013-08-31 22:19:00,76.3,75.0,29.94,North,4,0.0,0.0,97,0.00,,,0.30,weatherlink.com 1.10,2013-09-01 02:19:00,
2013-08-31 22:34:00,76.3,75.0,29.94,North,4,0.0,0.0,97,0.00,,,0.30,weatherlink.com 1.10,2013-09-01 02:34:00,
2013-08-31 22:49:00,76.2,75.0,29.95,North,4,0.0,0.0,97,0.00,,,0.30,weatherlink.com 1.10,2013-09-01 02:49:00,
2013-08-31 23:04:00,76.0,75.0,29.95,North,5,0.0,0.0,97,0.00,,,0.30,weatherlink.com 1.10,2013-09-01 03:04:00,
2013-08-31 23:19:00,75.8,75.0,29.95,North,4,0.0,0.0,98,0.00,,,0.30,weatherlink.com 1.10,2013-09-01 03:19:00,
2013-08-31 23:34:00,75.6,75.0,29.94,North,5,0.0,0.0,98,0.00,,,0.30,weatherlink.com 1.10,2013-09-01 03:34:00,
2013-08-31 23:49:00,75.5,75.0,29.94,North,5,0.0,0.0,98,0.00,,,0.30,weatherlink.com 1.10,2013-09-01 03:49:00,